| time (UTC) | temp F | wind direction | speed MPH | gust MPH | rain 1hr in | rain 24hr in | rain mn in | humidity % | barometer mb |
| 20260906093556 | 64 | 333 | 0.0 | 0.0 | 0.00 | 0.00 | 0.00 | 99 | 1018.3 |
| 20260906093051 | 64 | 333 | 0.0 | 0.0 | 0.00 | 0.00 | 0.00 | 99 | 1018.4 |
| 20260906092546 | 64 | 333 | 0.0 | 0.0 | 0.00 | 0.00 | 0.00 | 99 | 1018.6 |
| 20260906092041 | 64 | 333 | 0.0 | 0.0 | 0.00 | 0.00 | 0.00 | 99 | 1018.4 |
| 20260906091537 | 64 | 333 | 0.0 | 0.0 | 0.00 | 0.00 | 0.00 | 99 | 1018.3 |
| 20260906091033 | 64 | 333 | 0.0 | 0.0 | 0.00 | 0.00 | 0.00 | 99 | 1018.5 |
| 20260906090528 | 64 | 333 | 0.0 | 0.0 | 0.00 | 0.00 | 0.00 | 99 | 1018.2 |
| 20260906090023 | 64 | 333 | 0.0 | 0.0 | 0.00 | 0.00 | 0.00 | 99 | 1018.3 |
| 20260906085522 | 64 | 333 | 0.0 | 0.0 | 0.00 | 0.00 | 0.00 | 99 | 1018.3 |
| 20260906085021 | 64 | 323 | 0.0 | 0.0 | 0.00 | 0.00 | 0.00 | 99 | 1018.3 |
| 20260906084516 | 65 | 318 | 0.0 | 0.0 | 0.00 | 0.00 | 0.00 | 99 | 1018.2 |
| 20260906084015 | 65 | 315 | 0.0 | 0.0 | 0.00 | 0.00 | 0.00 | 99 | 1018.1 |
| 20260906083511 | 65 | 302 | 0.0 | 0.0 | 0.00 | 0.00 | 0.00 | 99 | 1018.3 |
| 20260906083010 | 65 | 350 | 0.0 | 1.0 | 0.00 | 0.00 | 0.00 | 99 | 1018.1 |
| 20260906082505 | 65 | 295 | 0.0 | 1.0 | 0.00 | 0.00 | 0.00 | 99 | 1018.1 |
| 20260906082001 | 65 | 352 | 0.0 | 0.0 | 0.00 | 0.00 | 0.00 | 99 | 1018.1 |
| 20260906081456 | 65 | 320 | 0.0 | 1.0 | 0.00 | 0.00 | 0.00 | 99 | 1018.1 |
| 20260906080952 | 65 | 330 | 0.0 | 0.0 | 0.00 | 0.00 | 0.00 | 99 | 1018.1 |
| 20260906080448 | 65 | 296 | 0.0 | 0.0 | 0.00 | 0.00 | 0.00 | 99 | 1018.1 |
| 20260906075943 | 65 | 27 | 0.0 | 1.0 | 0.00 | 0.00 | 0.00 | 99 | 1018.1 |
| 20260906075438 | 66 | 53 | 0.0 | 3.0 | 0.00 | 0.00 | 0.00 | 99 | 1018.0 |
| 20260906074932 | 66 | 338 | 0.0 | 1.0 | 0.00 | 0.00 | 0.00 | 98 | 1018.1 |
| 20260906074427 | 66 | 318 | 0.0 | 1.0 | 0.00 | 0.00 | 0.00 | 98 | 1018.0 |
| 20260906073926 | 66 | 303 | 0.0 | 1.0 | 0.00 | 0.00 | 0.00 | 98 | 1018.1 |
| 20260906073421 | 66 | 0 | 0.0 | 1.0 | 0.00 | 0.00 | 0.00 | 97 | 1018.2 |
| 20260906072917 | 66 | 57 | 1.0 | 1.0 | 0.00 | 0.00 | 0.00 | 97 | 1018.2 |
| 20260906072412 | 67 | 274 | 0.0 | 1.0 | 0.00 | 0.00 | 0.00 | 97 | 1018.1 |
| 20260906071908 | 67 | 279 | 0.0 | 2.0 | 0.00 | 0.00 | 0.00 | 97 | 1018.2 |
| 20260906071404 | 67 | 51 | 1.0 | 1.0 | 0.00 | 0.00 | 0.00 | 97 | 1017.9 |
| 20260906070859 | 67 | 310 | 0.0 | 0.0 | 0.00 | 0.00 | 0.00 | 96 | 1018.1 |
| 20260906070355 | 68 | 318 | 0.0 | 0.0 | 0.00 | 0.00 | 0.00 | 96 | 1017.9 |
| 20260906065851 | 68 | 173 | 0.0 | 2.0 | 0.00 | 0.00 | 0.00 | 96 | 1018.1 |
| 20260906065345 | 68 | 342 | 0.0 | 1.0 | 0.00 | 0.00 | 0.00 | 96 | 1018.3 |
| 20260906064840 | 68 | 316 | 0.0 | 1.0 | 0.00 | 0.00 | 0.00 | 96 | 1018.0 |
| 20260906064337 | 68 | 67 | 1.0 | 1.0 | 0.00 | 0.00 | 0.00 | 96 | 1018.2 |
| 20260906063837 | 68 | 340 | 0.0 | 0.0 | 0.00 | 0.00 | 0.00 | 96 | 1018.0 |
| 20260906063332 | 68 | 55 | 2.0 | 5.0 | 0.00 | 0.00 | 0.00 | 96 | 1018.2 |
| 20260906062827 | 68 | 342 | 0.0 | 3.0 | 0.00 | 0.00 | 0.00 | 97 | 1018.5 |
| 20260906062326 | 68 | 344 | 0.0 | 1.0 | 0.00 | 0.00 | 0.00 | 97 | 1018.2 |
| 20260906061822 | 68 | 89 | 0.0 | 2.0 | 0.00 | 0.00 | 0.00 | 98 | 1018.0 |
| 20260906061318 | 68 | 290 | 0.0 | 1.0 | 0.00 | 0.00 | 0.00 | 99 | 1018.1 |
| 20260906060813 | 69 | 335 | 0.0 | 0.0 | 0.00 | 0.00 | 0.00 | 99 | 1018.1 |
| 20260906060311 | 69 | 301 | 0.0 | 0.0 | 0.00 | 0.00 | 0.00 | 99 | 1017.9 |
| 20260906055807 | 69 | 336 | 0.0 | 0.0 | 0.00 | 0.00 | 0.00 | 99 | 1018.1 |
| 20260906055306 | 69 | 326 | 0.0 | 0.0 | 0.00 | 0.00 | 0.00 | 99 | 1017.9 |
| 20260906054756 | 69 | 317 | 0.0 | 0.0 | 0.00 | 0.00 | 0.00 | 99 | 1017.8 |
| 20260906054252 | 69 | 316 | 0.0 | 0.0 | 0.00 | 0.00 | 0.00 | 99 | 1017.6 |
| 20260906053748 | 69 | 312 | 0.0 | 0.0 | 0.00 | 0.00 | 0.00 | 99 | 1017.5 |
| 20260906053244 | 69 | 312 | 0.0 | 0.0 | 0.00 | 0.00 | 0.00 | 99 | 1017.5 |
| 20260906052738 | 69 | 311 | 0.0 | 0.0 | 0.00 | 0.00 | 0.00 | 98 | 1017.6 |
| 20260906052229 | 69 | 312 | 0.0 | 0.0 | 0.00 | 0.00 | 0.00 | 98 | 1017.5 |
| 20260906051726 | 69 | 309 | 0.0 | 0.0 | 0.00 | 0.00 | 0.00 | 98 | 1017.8 |
| 20260906051225 | 69 | 309 | 0.0 | 0.0 | 0.00 | 0.00 | 0.00 | 97 | 1017.6 |
| 20260906050721 | 70 | 303 | 0.0 | 0.0 | 0.00 | 0.00 | 0.00 | 97 | 1017.5 |
| 20260906050216 | 70 | 303 | 0.0 | 0.0 | 0.00 | 0.00 | 0.00 | 97 | 1017.4 |
| 20260906045714 | 70 | 303 | 0.0 | 0.0 | 0.00 | 0.00 | 0.00 | 96 | 1017.4 |
| 20260906045210 | 70 | 303 | 0.0 | 0.0 | 0.00 | 0.00 | 0.00 | 96 | 1017.5 |
| 20260906044706 | 71 | 305 | 0.0 | 0.0 | 0.00 | 0.00 | 0.00 | 96 | 1017.4 |
| 20260906044201 | 71 | 304 | 0.0 | 0.0 | 0.00 | 0.00 | 0.00 | 95 | 1017.5 |
| 20260906043656 | 71 | 320 | 0.0 | 0.0 | 0.00 | 0.00 | 0.00 | 95 | 1017.6 |
| 20260906043152 | 71 | 309 | 0.0 | 0.0 | 0.00 | 0.00 | 0.00 | 95 | 1017.4 |
| 20260906042651 | 71 | 309 | 0.0 | 0.0 | 0.00 | 0.00 | 0.00 | 95 | 1017.5 |
| 20260906042145 | 71 | 299 | 0.0 | 1.0 | 0.00 | 0.00 | 0.00 | 95 | 1017.5 |
| 20260906041641 | 71 | 295 | 0.0 | 0.0 | 0.00 | 0.00 | 0.00 | 95 | 1017.3 |
| 20260906041136 | 71 | 302 | 0.0 | 0.0 | 0.00 | 0.00 | 0.00 | 95 | 1017.5 |
| 20260906040631 | 71 | 302 | 0.0 | 1.0 | 0.00 | 0.00 | 0.00 | 95 | 1017.3 |
| 20260906040127 | 71 | 318 | 0.0 | 0.0 | 0.00 | 0.00 | 0.00 | 95 | 1017.3 |
| 20260906035622 | 71 | 289 | 0.0 | 0.0 | 0.00 | 0.07 | 0.07 | 95 | 1017.4 |
| 20260906035118 | 71 | 303 | 0.0 | 0.0 | 0.00 | 0.07 | 0.07 | 95 | 1017.2 |
| 20260906034618 | 71 | 303 | 0.0 | 0.0 | 0.00 | 0.07 | 0.07 | 95 | 1017.2 |
| 20260906034113 | 71 | 303 | 0.0 | 0.0 | 0.00 | 0.07 | 0.07 | 95 | 1017.1 |
| 20260906033609 | 71 | 299 | 0.0 | 1.0 | 0.00 | 0.07 | 0.07 | 94 | 1017.3 |
| 20260906033103 | 71 | 312 | 0.0 | 0.0 | 0.00 | 0.07 | 0.07 | 94 | 1017.2 |
| 20260906032600 | 71 | 297 | 0.0 | 0.0 | 0.00 | 0.07 | 0.07 | 94 | 1017.1 |
| 20260906032100 | 71 | 312 | 0.0 | 1.0 | 0.00 | 0.07 | 0.07 | 94 | 1017.0 |
| 20260906031555 | 71 | 303 | 0.0 | 0.0 | 0.00 | 0.07 | 0.07 | 94 | 1017.0 |
| 20260906031051 | 71 | 334 | 0.0 | 0.0 | 0.00 | 0.07 | 0.07 | 94 | 1017.1 |
| 20260906030550 | 71 | 335 | 0.0 | 2.0 | 0.00 | 0.07 | 0.07 | 94 | 1017.1 |
| 20260906030049 | 71 | 313 | 0.0 | 0.0 | 0.00 | 0.07 | 0.07 | 94 | 1017.1 |
| 20260906025544 | 71 | 316 | 0.0 | 2.0 | 0.00 | 0.07 | 0.07 | 94 | 1017.1 |
| 20260906025042 | 71 | 324 | 0.0 | 0.0 | 0.00 | 0.07 | 0.07 | 94 | 1017.2 |
| 20260906024537 | 71 | 333 | 0.0 | 1.0 | 0.00 | 0.07 | 0.07 | 94 | 1017.1 |
| 20260906024032 | 71 | 308 | 0.0 | 0.0 | 0.00 | 0.07 | 0.07 | 94 | 1016.9 |
| 20260906023528 | 71 | 321 | 0.0 | 0.0 | 0.00 | 0.07 | 0.07 | 94 | 1017.0 |
| 20260906023023 | 71 | 321 | 0.0 | 0.0 | 0.00 | 0.07 | 0.07 | 93 | 1017.0 |
| 20260906022518 | 71 | 324 | 0.0 | 0.0 | 0.00 | 0.07 | 0.07 | 93 | 1017.0 |
| 20260906022013 | 71 | 193 | 2.0 | 2.0 | 0.00 | 0.07 | 0.07 | 93 | 1016.9 |
| 20260906021508 | 71 | 314 | 0.0 | 0.0 | 0.00 | 0.07 | 0.07 | 93 | 1017.1 |
| 20260906021002 | 72 | 311 | 0.0 | 0.0 | 0.00 | 0.07 | 0.07 | 93 | 1016.9 |
| 20260906020456 | 72 | 311 | 0.0 | 1.0 | 0.00 | 0.07 | 0.07 | 93 | 1016.8 |
| 20260906015956 | 71 | 328 | 0.0 | 1.0 | 0.00 | 0.07 | 0.07 | 92 | 1016.8 |
| 20260906015455 | 72 | 331 | 0.0 | 1.0 | 0.00 | 0.07 | 0.07 | 92 | 1016.8 |
| 20260906014950 | 72 | 298 | 0.0 | 1.0 | 0.00 | 0.07 | 0.07 | 92 | 1016.6 |
| 20260906014450 | 72 | 213 | 1.0 | 1.0 | 0.00 | 0.07 | 0.07 | 92 | 1016.7 |
| 20260906013946 | 72 | 334 | 0.0 | 3.0 | 0.00 | 0.07 | 0.07 | 91 | 1016.6 |
| 20260906013441 | 72 | 305 | 0.0 | 1.0 | 0.00 | 0.07 | 0.07 | 91 | 1016.5 |
| 20260906012936 | 72 | 340 | 0.0 | 2.0 | 0.00 | 0.07 | 0.07 | 91 | 1016.5 |
| 20260906012431 | 72 | 266 | 1.0 | 1.0 | 0.00 | 0.07 | 0.07 | 91 | 1016.4 |
| 20260906011931 | 72 | 349 | 0.0 | 3.0 | 0.00 | 0.07 | 0.07 | 92 | 1016.5 |
| 20260906011426 | 72 | 333 | 0.0 | 0.0 | 0.00 | 0.07 | 0.07 | 92 | 1016.0 |
| 20260906010921 | 72 | 335 | 0.0 | 1.0 | 0.00 | 0.07 | 0.07 | 92 | 1016.1 |
| 20260906010416 | 72 | 43 | 1.0 | 5.0 | 0.00 | 0.07 | 0.07 | 92 | 1016.2 |
| 20260906005912 | 72 | 321 | 0.0 | 0.0 | 0.00 | 0.07 | 0.07 | 93 | 1016.3 |
| 20260906005412 | 72 | 326 | 0.0 | 0.0 | 0.00 | 0.07 | 0.07 | 92 | 1016.1 |
| 20260906004910 | 72 | 304 | 0.0 | 2.0 | 0.00 | 0.07 | 0.07 | 92 | 1016.3 |
| 20260906004405 | 72 | 269 | 0.0 | 2.0 | 0.00 | 0.07 | 0.07 | 92 | 1016.0 |
| 20260906003901 | 72 | 345 | 0.0 | 2.0 | 0.00 | 0.07 | 0.07 | 92 | 1016.0 |
| 20260906003356 | 73 | 289 | 1.0 | 1.0 | 0.00 | 0.07 | 0.07 | 92 | 1016.0 |
| 20260906002851 | 73 | 24 | 3.0 | 3.0 | 0.00 | 0.07 | 0.07 | 92 | 1016.2 |
| 20260906002350 | 73 | 328 | 0.0 | 1.0 | 0.00 | 0.07 | 0.07 | 92 | 1015.8 |
| 20260906001846 | 73 | 293 | 1.0 | 1.0 | 0.00 | 0.07 | 0.07 | 91 | 1015.7 |
| 20260906001342 | 73 | 326 | 0.0 | 3.0 | 0.00 | 0.07 | 0.07 | 91 | 1015.7 |
| 20260906000836 | 74 | 311 | 0.0 | 1.0 | 0.00 | 0.07 | 0.07 | 91 | 1015.6 |
| 20260906000333 | 74 | 336 | 0.0 | 2.0 | 0.00 | 0.07 | 0.07 | 91 | 1015.6 |
| 20260905235825 | 74 | 317 | 0.0 | 1.0 | 0.00 | 0.07 | 0.07 | 90 | 1015.5 |
| 20260905235320 | 74 | 154 | 3.0 | 6.0 | 0.00 | 0.07 | 0.07 | 90 | 1015.3 |
| 20260905234816 | 74 | 332 | 0.0 | 9.0 | 0.00 | 0.07 | 0.07 | 90 | 1015.4 |
| 20260905234311 | 75 | 183 | 1.0 | 3.0 | 0.00 | 0.07 | 0.07 | 90 | 1015.5 |
| 20260905233811 | 75 | 32 | 2.0 | 7.0 | 0.00 | 0.07 | 0.07 | 90 | 1015.4 |
| 20260905233306 | 76 | 163 | 2.0 | 3.0 | 0.00 | 0.07 | 0.07 | 90 | 1015.4 |
| 20260905232805 | 76 | 359 | 1.0 | 5.0 | 0.00 | 0.07 | 0.07 | 89 | 1015.3 |
| 20260905232305 | 77 | 320 | 2.0 | 5.0 | 0.00 | 0.07 | 0.07 | 88 | 1014.8 |
| 20260905231757 | 77 | 6 | 1.0 | 3.0 | 0.00 | 0.07 | 0.07 | 87 | 1015.1 |
| 20260905231252 | 78 | 176 | 1.0 | 3.0 | 0.00 | 0.07 | 0.07 | 86 | 1014.8 |
| 20260905230748 | 78 | 256 | 1.0 | 2.0 | 0.00 | 0.07 | 0.07 | 87 | 1015.2 |
| 20260905230246 | 78 | 178 | 2.0 | 3.0 | 0.00 | 0.07 | 0.07 | 87 | 1015.1 |
| 20260905225746 | 78 | 175 | 3.0 | 3.0 | 0.00 | 0.07 | 0.07 | 85 | 1015.1 |
| 20260905225241 | 79 | 180 | 2.0 | 2.0 | 0.00 | 0.07 | 0.07 | 85 | 1014.8 |
| 20260905224740 | 79 | 201 | 1.0 | 1.0 | 0.00 | 0.07 | 0.07 | 84 | 1014.8 |
| 20260905224236 | 80 | 17 | 3.0 | 6.0 | 0.00 | 0.07 | 0.07 | 83 | 1014.9 |
| 20260905223732 | 80 | 13 | 1.0 | 2.0 | 0.00 | 0.07 | 0.07 | 83 | 1014.6 |
| 20260905223228 | 80 | 349 | 1.0 | 2.0 | 0.00 | 0.07 | 0.07 | 83 | 1014.6 |
| 20260905222724 | 81 | 302 | 0.0 | 3.0 | 0.00 | 0.07 | 0.07 | 81 | 1014.5 |
| 20260905222223 | 81 | 331 | 0.0 | 5.0 | 0.00 | 0.07 | 0.07 | 81 | 1014.4 |
| 20260905221719 | 80 | 143 | 1.0 | 3.0 | 0.00 | 0.07 | 0.07 | 82 | 1014.1 |
| 20260905221216 | 81 | 357 | 2.0 | 3.0 | 0.00 | 0.07 | 0.07 | 80 | 1014.3 |
| 20260905220711 | 81 | 280 | 1.0 | 3.0 | 0.00 | 0.07 | 0.07 | 82 | 1014.4 |
| 20260905220207 | 81 | 292 | 0.0 | 1.0 | 0.00 | 0.07 | 0.07 | 80 | 1014.2 |
| 20260905215706 | 82 | 330 | 0.0 | 5.0 | 0.00 | 0.07 | 0.07 | 80 | 1014.1 |
| 20260905215202 | 82 | 335 | 1.0 | 1.0 | 0.00 | 0.07 | 0.07 | 79 | 1014.4 |
| 20260905214658 | 83 | 225 | 2.0 | 3.0 | 0.00 | 0.07 | 0.07 | 77 | 1014.0 |
| 20260905214153 | 84 | 160 | 3.0 | 6.0 | 0.00 | 0.07 | 0.07 | 74 | 1014.0 |
| 20260905213648 | 84 | 337 | 1.0 | 2.0 | 0.00 | 0.07 | 0.07 | 75 | 1014.2 |
| 20260905213144 | 84 | 322 | 1.0 | 3.0 | 0.00 | 0.07 | 0.07 | 76 | 1014.0 |
| 20260905212639 | 84 | 209 | 2.0 | 2.0 | 0.00 | 0.07 | 0.07 | 76 | 1014.1 |
| 20260905212138 | 85 | 5 | 2.0 | 5.0 | 0.00 | 0.07 | 0.07 | 76 | 1013.8 |
| 20260905211633 | 86 | 168 | 2.0 | 3.0 | 0.00 | 0.07 | 0.07 | 74 | 1014.0 |
| 20260905211129 | 85 | 318 | 2.0 | 2.0 | 0.00 | 0.07 | 0.07 | 74 | 1014.0 |
| 20260905210625 | 86 | 321 | 2.0 | 5.0 | 0.00 | 0.07 | 0.07 | 74 | 1013.9 |
| 20260905210120 | 85 | 350 | 0.0 | 2.0 | 0.00 | 0.07 | 0.07 | 76 | 1014.0 |
| 20260905205619 | 84 | 207 | 2.0 | 2.0 | 0.00 | 0.07 | 0.07 | 77 | 1013.8 |
| 20260905205119 | 82 | 194 | 1.0 | 3.0 | 0.00 | 0.07 | 0.07 | 80 | 1013.9 |
| 20260905204618 | 83 | 322 | 2.0 | 5.0 | 0.00 | 0.07 | 0.07 | 80 | 1013.8 |
| 20260905204114 | 82 | 343 | 1.0 | 3.0 | 0.00 | 0.07 | 0.07 | 80 | 1014.0 |
| 20260905203614 | 83 | 223 | 1.0 | 2.0 | 0.00 | 0.07 | 0.07 | 81 | 1014.0 |
| 20260905203109 | 84 | 151 | 3.0 | 3.0 | 0.00 | 0.07 | 0.07 | 79 | 1014.0 |
| 20260905202604 | 85 | 10 | 0.0 | 2.0 | 0.00 | 0.07 | 0.07 | 78 | 1013.9 |
| 20260905202059 | 86 | 318 | 0.0 | 6.0 | 0.00 | 0.07 | 0.07 | 75 | 1014.0 |
| 20260905201555 | 86 | 296 | 0.0 | 1.0 | 0.00 | 0.07 | 0.07 | 77 | 1014.2 |
| 20260905201054 | 86 | 241 | 1.0 | 2.0 | 0.00 | 0.07 | 0.07 | 76 | 1013.9 |
| 20260905200550 | 85 | 329 | 0.0 | 5.0 | 0.00 | 0.07 | 0.07 | 79 | 1014.2 |
| 20260905200044 | 87 | 310 | 1.0 | 3.0 | 0.00 | 0.07 | 0.07 | 76 | 1014.1 |
| 20260905195544 | 86 | 294 | 1.0 | 1.0 | 0.00 | 0.07 | 0.07 | 75 | 1014.1 |
| 20260905195040 | 85 | 193 | 3.0 | 5.0 | 0.00 | 0.07 | 0.07 | 75 | 1014.0 |
| 20260905194539 | 84 | 224 | 1.0 | 3.0 | 0.00 | 0.07 | 0.07 | 79 | 1014.1 |
| 20260905194038 | 86 | 320 | 0.0 | 1.0 | 0.00 | 0.07 | 0.07 | 77 | 1014.2 |
| 20260905193534 | 85 | 325 | 0.0 | 1.0 | 0.00 | 0.07 | 0.07 | 78 | 1014.2 |
| 20260905193029 | 84 | 7 | 0.0 | 1.0 | 0.00 | 0.07 | 0.07 | 83 | 1014.0 |
| 20260905192524 | 84 | 328 | 0.0 | 1.0 | 0.00 | 0.07 | 0.07 | 81 | 1014.3 |
| 20260905192021 | 87 | 353 | 2.0 | 2.0 | 0.00 | 0.07 | 0.07 | 75 | 1014.1 |
| 20260905191519 | 86 | 339 | 0.0 | 3.0 | 0.00 | 0.07 | 0.07 | 78 | 1014.1 |
| 20260905191018 | 86 | 278 | 1.0 | 2.0 | 0.00 | 0.07 | 0.07 | 78 | 1014.3 |
| 20260905190516 | 86 | 327 | 0.0 | 6.0 | 0.00 | 0.07 | 0.07 | 77 | 1014.1 |
| 20260905190010 | 85 | 315 | 0.0 | 1.0 | 0.00 | 0.07 | 0.07 | 80 | 1014.3 |
| 20260905185504 | 86 | 225 | 1.0 | 3.0 | 0.00 | 0.07 | 0.07 | 77 | 1014.3 |
| 20260905185003 | 86 | 65 | 1.0 | 2.0 | 0.00 | 0.07 | 0.07 | 76 | 1014.3 |
| 20260905184459 | 85 | 327 | 0.0 | 1.0 | 0.00 | 0.07 | 0.07 | 80 | 1014.3 |
| 20260905183957 | 83 | 224 | 1.0 | 1.0 | 0.00 | 0.07 | 0.07 | 82 | 1014.2 |
| 20260905183457 | 83 | 329 | 0.0 | 2.0 | 0.00 | 0.07 | 0.07 | 82 | 1014.4 |
| 20260905182952 | 85 | 245 | 0.0 | 1.0 | 0.00 | 0.07 | 0.07 | 79 | 1014.5 |
| 20260905182451 | 86 | 315 | 2.0 | 3.0 | 0.00 | 0.07 | 0.07 | 78 | 1014.3 |
| 20260905181946 | 84 | 327 | 0.0 | 1.0 | 0.00 | 0.07 | 0.07 | 80 | 1014.4 |
| 20260905181441 | 84 | 312 | 0.0 | 0.0 | 0.00 | 0.07 | 0.07 | 82 | 1014.7 |
| 20260905180940 | 84 | 313 | 0.0 | 0.0 | 0.00 | 0.07 | 0.07 | 81 | 1014.3 |
| 20260905180435 | 85 | 10 | 1.0 | 7.0 | 0.00 | 0.07 | 0.07 | 78 | 1014.5 |
| 20260905175930 | 86 | 6 | 1.0 | 2.0 | 0.00 | 0.07 | 0.07 | 74 | 1014.6 |
| 20260905175429 | 86 | 333 | 1.0 | 2.0 | 0.00 | 0.07 | 0.07 | 76 | 1014.5 |
| 20260905174925 | 85 | 273 | 0.0 | 1.0 | 0.00 | 0.07 | 0.07 | 79 | 1014.7 |
| 20260905174421 | 84 | 303 | 0.0 | 1.0 | 0.00 | 0.07 | 0.07 | 80 | 1014.6 |
| 20260905173916 | 84 | 314 | 0.0 | 0.0 | 0.00 | 0.07 | 0.07 | 82 | 1014.7 |
| 20260905173413 | 85 | 331 | 0.0 | 0.0 | 0.00 | 0.07 | 0.07 | 81 | 1014.5 |
| 20260905172913 | 84 | 263 | 0.0 | 1.0 | 0.00 | 0.07 | 0.07 | 76 | 1014.7 |
| 20260905172410 | 85 | 291 | 0.0 | 0.0 | 0.00 | 0.07 | 0.07 | 77 | 1014.9 |
| 20260905171907 | 85 | 303 | 0.0 | 0.0 | 0.00 | 0.07 | 0.07 | 79 | 1014.8 |
| 20260905171404 | 85 | 308 | 0.0 | 1.0 | 0.00 | 0.07 | 0.07 | 77 | 1014.8 |
| 20260905170900 | 86 | 349 | 0.0 | 1.0 | 0.00 | 0.07 | 0.07 | 77 | 1014.6 |
| 20260905170355 | 86 | 290 | 0.0 | 2.0 | 0.00 | 0.07 | 0.07 | 75 | 1014.7 |
| 20260905165854 | 85 | 352 | 0.0 | 1.0 | 0.00 | 0.07 | 0.07 | 78 | 1015.2 |
| 20260905165350 | 84 | 253 | 1.0 | 1.0 | 0.00 | 0.07 | 0.07 | 76 | 1014.9 |
| 20260905164844 | 84 | 335 | 1.0 | 1.0 | 0.00 | 0.07 | 0.07 | 79 | 1014.9 |
| 20260905164339 | 85 | 310 | 0.0 | 1.0 | 0.00 | 0.07 | 0.07 | 76 | 1014.9 |
| 20260905163835 | 84 | 233 | 1.0 | 1.0 | 0.00 | 0.07 | 0.07 | 79 | 1015.1 |
| 20260905163331 | 84 | 336 | 1.0 | 1.0 | 0.00 | 0.07 | 0.07 | 80 | 1014.8 |
| 20260905162827 | 83 | 353 | 0.0 | 1.0 | 0.00 | 0.07 | 0.07 | 81 | 1015.2 |
| 20260905162321 | 83 | 332 | 0.0 | 1.0 | 0.00 | 0.07 | 0.07 | 81 | 1015.3 |
| 20260905161815 | 82 | 340 | 1.0 | 2.0 | 0.00 | 0.07 | 0.07 | 83 | 1015.3 |
| 20260905161315 | 83 | 71 | 0.0 | 1.0 | 0.00 | 0.07 | 0.07 | 82 | 1015.2 |
| 20260905160813 | 83 | 349 | 0.0 | 2.0 | 0.00 | 0.07 | 0.07 | 83 | 1015.2 |
| 20260905160308 | 81 | 315 | 0.0 | 1.0 | 0.00 | 0.07 | 0.07 | 83 | 1015.2 |
| 20260905155802 | 80 | 285 | 1.0 | 2.0 | 0.00 | 0.07 | 0.07 | 87 | 1015.3 |
| 20260905155301 | 80 | 278 | 1.0 | 2.0 | 0.00 | 0.07 | 0.07 | 87 | 1015.4 |
| 20260905154755 | 78 | 303 | 0.0 | 1.0 | 0.00 | 0.07 | 0.07 | 89 | 1015.3 |
| 20260905154251 | 79 | 323 | 0.0 | 0.0 | 0.00 | 0.07 | 0.07 | 90 | 1015.5 |
| 20260905153746 | 78 | 290 | 0.0 | 0.0 | 0.00 | 0.07 | 0.07 | 90 | 1015.3 |
| 20260905153242 | 78 | 290 | 0.0 | 0.0 | 0.00 | 0.07 | 0.07 | 90 | 1015.4 |
| 20260905152737 | 78 | 278 | 1.0 | 1.0 | 0.00 | 0.07 | 0.07 | 91 | 1015.3 |
| 20260905152231 | 77 | 308 | 0.0 | 0.0 | 0.00 | 0.07 | 0.07 | 90 | 1015.3 |
| 20260905151730 | 77 | 286 | 0.0 | 1.0 | 0.00 | 0.07 | 0.07 | 90 | 1015.4 |
| 20260905151227 | 77 | 303 | 0.0 | 2.0 | 0.00 | 0.07 | 0.07 | 91 | 1015.2 |
| 20260905150727 | 77 | 332 | 0.0 | 1.0 | 0.00 | 0.07 | 0.07 | 92 | 1015.1 |
| 20260905150226 | 77 | 340 | 0.0 | 1.0 | 0.00 | 0.07 | 0.07 | 91 | 1015.2 |
| 20260905145724 | 77 | 12 | 0.0 | 2.0 | 0.00 | 0.07 | 0.07 | 90 | 1015.2 |
| 20260905145219 | 78 | 350 | 1.0 | 1.0 | 0.00 | 0.07 | 0.07 | 90 | 1015.2 |
| 20260905144717 | 78 | 293 | 0.0 | 1.0 | 0.00 | 0.07 | 0.07 | 89 | 1015.4 |
| 20260905144212 | 77 | 293 | 0.0 | 1.0 | 0.00 | 0.07 | 0.07 | 91 | 1015.5 |
| 20260905143711 | 76 | 320 | 0.0 | 1.0 | 0.00 | 0.07 | 0.07 | 93 | 1015.4 |
| 20260905143206 | 75 | 14 | 1.0 | 1.0 | 0.00 | 0.07 | 0.07 | 94 | 1015.1 |
| 20260905142704 | 75 | 339 | 0.0 | 1.0 | 0.00 | 0.07 | 0.07 | 95 | 1015.2 |
| 20260905142159 | 75 | 290 | 1.0 | 1.0 | 0.00 | 0.07 | 0.07 | 95 | 1015.2 |
| 20260905141655 | 75 | 321 | 0.0 | 0.0 | 0.00 | 0.07 | 0.07 | 96 | 1015.3 |
| 20260905141150 | 75 | 322 | 0.0 | 1.0 | 0.00 | 0.07 | 0.07 | 95 | 1015.2 |
| 20260905140645 | 76 | 340 | 0.0 | 0.0 | 0.00 | 0.07 | 0.07 | 96 | 1014.9 |
| 20260905140139 | 75 | 323 | 1.0 | 2.0 | 0.00 | 0.07 | 0.07 | 96 | 1014.9 |
| 20260905135634 | 74 | 318 | 0.0 | 1.0 | 0.00 | 0.07 | 0.07 | 99 | 1014.9 |
| 20260905135130 | 74 | 331 | 0.0 | 0.0 | 0.00 | 0.07 | 0.07 | 99 | 1015.1 |
| 20260905134624 | 73 | 208 | 0.0 | 1.0 | 0.00 | 0.07 | 0.07 | 99 | 1015.1 |
| 20260905134123 | 73 | 310 | 0.0 | 0.0 | 0.00 | 0.07 | 0.07 | 99 | 1015.1 |
| 20260905133618 | 73 | 328 | 0.0 | 0.0 | 0.00 | 0.07 | 0.07 | 99 | 1015.3 |
| 20260905133113 | 72 | 316 | 0.0 | 0.0 | 0.00 | 0.07 | 0.07 | 99 | 1014.9 |
| 20260905132613 | 73 | 316 | 0.0 | 0.0 | 0.00 | 0.07 | 0.07 | 99 | 1014.9 |
| 20260905132107 | 73 | 325 | 0.0 | 0.0 | 0.00 | 0.07 | 0.07 | 99 | 1014.8 |
| 20260905131603 | 72 | 325 | 0.0 | 0.0 | 0.00 | 0.07 | 0.07 | 99 | 1014.9 |
| 20260905131058 | 72 | 325 | 0.0 | 0.0 | 0.00 | 0.07 | 0.07 | 99 | 1014.6 |
| 20260905130557 | 72 | 326 | 0.0 | 0.0 | 0.00 | 0.07 | 0.07 | 99 | 1014.8 |
| 20260905130052 | 72 | 326 | 0.0 | 0.0 | 0.00 | 0.07 | 0.07 | 99 | 1015.2 |
| 20260905125552 | 72 | 342 | 0.0 | 0.0 | 0.00 | 0.07 | 0.07 | 99 | 1014.7 |
| 20260905125047 | 72 | 330 | 0.0 | 0.0 | 0.00 | 0.07 | 0.07 | 99 | 1014.8 |
| 20260905124544 | 72 | 331 | 0.0 | 0.0 | 0.00 | 0.07 | 0.07 | 99 | 1015.1 |
| 20260905124039 | 71 | 330 | 0.0 | 0.0 | 0.00 | 0.07 | 0.07 | 99 | 1014.6 |
| 20260905123535 | 71 | 330 | 0.0 | 0.0 | 0.00 | 0.07 | 0.07 | 99 | 1014.6 |
| 20260905123032 | 71 | 330 | 0.0 | 1.0 | 0.00 | 0.07 | 0.07 | 99 | 1014.4 |
| 20260905122531 | 71 | 329 | 0.0 | 0.0 | 0.00 | 0.07 | 0.07 | 99 | 1014.1 |
| 20260905122026 | 71 | 329 | 0.0 | 0.0 | 0.00 | 0.07 | 0.07 | 99 | 1014.2 |
| 20260905121521 | 71 | 329 | 0.0 | 0.0 | 0.00 | 0.07 | 0.07 | 99 | 1014.2 |
| 20260905121021 | 71 | 329 | 0.0 | 0.0 | 0.00 | 0.07 | 0.07 | 99 | 1014.1 |
| 20260905120515 | 71 | 329 | 0.0 | 0.0 | 0.00 | 0.07 | 0.07 | 99 | 1014.3 |
| 20260905120011 | 71 | 329 | 0.0 | 0.0 | 0.00 | 0.07 | 0.07 | 99 | 1014.3 |
| 20260905115509 | 71 | 329 | 0.0 | 0.0 | 0.00 | 0.07 | 0.07 | 99 | 1014.0 |
| 20260905115004 | 71 | 329 | 0.0 | 0.0 | 0.00 | 0.07 | 0.07 | 99 | 1014.1 |
| 20260905114504 | 71 | 330 | 0.0 | 0.0 | 0.00 | 0.07 | 0.07 | 99 | 1013.9 |
| 20260905114003 | 71 | 330 | 0.0 | 0.0 | 0.00 | 0.07 | 0.07 | 99 | 1014.0 |
| 20260905113458 | 71 | 330 | 0.0 | 1.0 | 0.00 | 0.07 | 0.07 | 99 | 1014.1 |
| 20260905112953 | 71 | 330 | 0.0 | 0.0 | 0.00 | 0.07 | 0.07 | 99 | 1014.0 |
| 20260905112448 | 71 | 330 | 0.0 | 0.0 | 0.00 | 0.07 | 0.07 | 99 | 1014.1 |
| 20260905111943 | 71 | 330 | 0.0 | 0.0 | 0.00 | 0.07 | 0.07 | 99 | 1013.8 |
| 20260905111438 | 71 | 330 | 0.0 | 0.0 | 0.00 | 0.07 | 0.07 | 99 | 1014.1 |
| 20260905110938 | 71 | 330 | 0.0 | 0.0 | 0.00 | 0.07 | 0.07 | 99 | 1013.8 |
| 20260905110431 | 71 | 330 | 0.0 | 0.0 | 0.00 | 0.07 | 0.07 | 99 | 1013.6 |
| 20260905105931 | 71 | 330 | 0.0 | 0.0 | 0.00 | 0.07 | 0.07 | 99 | 1013.7 |
| 20260905105426 | 71 | 330 | 0.0 | 0.0 | 0.00 | 0.07 | 0.07 | 99 | 1013.6 |
| 20260905104926 | 70 | 330 | 0.0 | 0.0 | 0.00 | 0.07 | 0.07 | 99 | 1013.5 |
| 20260905104422 | 70 | 330 | 0.0 | 0.0 | 0.00 | 0.07 | 0.07 | 99 | 1013.6 |
| 20260905103922 | 70 | 330 | 0.0 | 0.0 | 0.00 | 0.07 | 0.07 | 99 | 1013.5 |
| 20260905103418 | 71 | 330 | 0.0 | 0.0 | 0.00 | 0.07 | 0.07 | 99 | 1013.3 |
| 20260905102913 | 71 | 330 | 0.0 | 0.0 | 0.00 | 0.07 | 0.07 | 99 | 1013.5 |
| 20260905102410 | 71 | 330 | 0.0 | 0.0 | 0.00 | 0.07 | 0.07 | 99 | 1013.6 |
| 20260905101910 | 70 | 330 | 0.0 | 0.0 | 0.00 | 0.07 | 0.07 | 99 | 1013.6 |
| 20260905101408 | 71 | 330 | 0.0 | 0.0 | 0.00 | 0.07 | 0.07 | 99 | 1013.4 |
| 20260905100903 | 71 | 330 | 0.0 | 0.0 | 0.00 | 0.07 | 0.07 | 99 | 1013.5 |
| 20260905100359 | 71 | 330 | 0.0 | 0.0 | 0.00 | 0.07 | 0.07 | 99 | 1013.4 |
| 20260905095858 | 71 | 329 | 0.0 | 0.0 | 0.00 | 0.07 | 0.07 | 99 | 1013.5 |
| 20260905095353 | 71 | 329 | 0.0 | 0.0 | 0.00 | 0.07 | 0.07 | 99 | 1013.5 |
| 20260905094847 | 71 | 329 | 0.0 | 0.0 | 0.00 | 0.07 | 0.07 | 99 | 1013.5 |
| 20260905094343 | 71 | 329 | 0.0 | 1.0 | 0.00 | 0.07 | 0.07 | 99 | 1013.6 |
| 20260905093842 | 71 | 329 | 0.0 | 0.0 | 0.00 | 0.07 | 0.07 | 99 | 1013.6 |